This is the latest recevied weather packets stored in our database for station/object KG2V. If no packets are shown the sender has not sent any weather packets the latest 10 day(s).
| Time | Temp. | Humidity | Pressure | Rain* | Wind** | Luminosity | Snow |
|---|---|---|---|---|---|---|---|
| 1777584764 | 9.44° C | 65% | 1007.3 hPa | 0 mm | - | 32 W/m² | - |
| 1777584462 | 9.44° C | 64% | 1007 hPa | 0 mm | - | 67 W/m² | - |
| 1777584158 | 9.44° C | 64% | 1007 hPa | 0 mm | - | 97 W/m² | - |
| 1777583852 | 9.44° C | 63% | 1007.1 hPa | 0 mm | - | 116 W/m² | - |
| 1777583548 | 9.44° C | 66% | 1007.1 hPa | 0 mm | - | 121 W/m² | - |
| 1777583247 | 9.44° C | 63% | 1006.9 hPa | 0 mm | - | 97 W/m² | - |
| 1777582942 | 9.44° C | 63% | 1007.1 hPa | 0 mm | - | 90 W/m² | - |
| 1777582640 | 9.44° C | 65% | 1006.9 hPa | 0 mm | - | 83 W/m² | - |
| 1777582335 | 9.44° C | 65% | 1006.8 hPa | 0 mm | - | 82 W/m² | - |
| 1777582033 | 9.44° C | 64% | 1006.9 hPa | 0 mm | - | 71 W/m² | - |
| 1777581728 | 9.44° C | 64% | 1006.9 hPa | 0 mm | - | 64 W/m² | - |
| 1777581427 | 9.44° C | 63% | 1007 hPa | 0 mm | - | 61 W/m² | - |
| 1777581127 | 9.44° C | 62% | 1006.9 hPa | 0 mm | - | 90 W/m² | - |
| 1777580822 | 9.44° C | 62% | 1006.9 hPa | 0 mm | - | 135 W/m² | - |
| 1777580517 | 9.44° C | 63% | 1006.7 hPa | 0 mm | - | 105 W/m² | - |
| 1777580212 | 10° C | 62% | 1006.8 hPa | 0 mm | - | 127 W/m² | - |
| 1777579909 | 9.44° C | 63% | 1006.7 hPa | 0 mm | - | 169 W/m² | - |
| 1777579604 | 9.44° C | 64% | 1006.7 hPa | 0 mm | - | 140 W/m² | - |
| 1777579298 | 9.44° C | 63% | 1006.7 hPa | 0 mm | - | 71 W/m² | - |
| 1777578994 | 10° C | 62% | 1006.6 hPa | 0 mm | - | 54 W/m² | - |
| 1777578689 | 9.44° C | 63% | 1006.5 hPa | 0 mm | - | 142 W/m² | - |
| 1777578387 | 9.44° C | 66% | 1006.4 hPa | 0 mm | - | 135 W/m² | - |
| 1777578079 | 9.44° C | 63% | 1006.8 hPa | 0 mm | - | 53 W/m² | - |
| 1777577774 | 9.44° C | 64% | 1006.6 hPa | 0 mm | - | 81 W/m² | - |
| 1777577471 | 9.44° C | 63% | 1006.7 hPa | 0 mm | - | 149 W/m² | - |
* Rain latest hour (hover to see other rain measurements)
** Current wind speed in m/s (hover to see current wind gust speed)